Regional Weather Roundup
Issued by NWS

Home | Current Version | Previous Version | Text Only | Print | Product List | Glossary Off
Versions: 1 2 3 4 5 6 7 8 9 10 11 12 13 14 15 16 17 18 19 20 21 22 23 24 25 26 27 28 29 30 31 32 33 34 35 36 37 38 39 40 41 42 43 44 45 46 47 48 49 50

000
ASUS43 KMPX 232001
RWRMN
WEATHER ROUNDUP FOR MINNESOTA
NATIONAL WEATHER SERVICE TWIN CITIES/CHANHASSEN MN
200 PM CST TUE JAN 23 2018


NOTE: "FAIR" INDICATES FEW OR NO CLOUDS BELOW 12,000 FEET WITH NO
SIGNIFICANT WEATHER AND/OR OBSTRUCTIONS TO VISIBILITY. N/A MEANS
CURRENT SKY AND/OR WEATHER CONDITIONS ARE NOT AVAILABLE.

MNZ060>063-068>070-232100-
   Twin Cities Metro

CITY           SKY/WX    TMP DP  RH WIND       PRES   REMARKS
TWIN CITIES    FAIR      25  15  66 NW13      30.07S WCI  14
ST PAUL        FAIR      25  15  66 NW10      30.08S WCI  15
CRYSTAL        FAIR      25  12  58 NW10      30.06S WCI  15
BLAINE         MOSUNNY   28  16  59 NW9       30.06S WCI  20
LAKEVILLE      FAIR      25  16  68 NW9       30.06S WCI  15
EDEN PRAIRIE   FAIR      27  14  58 NW10      30.06S WCI  17
SOUTH ST PAUL  FAIR      26  15  63 NW9       30.07R WCI  17
LAKE ELMO      FAIR      25  16  68 NW8       30.06S WCI  16
$$
MNZ001>005-007-008-013>017-022>024-027-028-232100-
   Northwest Minnesota

CITY           SKY/WX    TMP DP  RH WIND       PRES   REMARKS
BEMIDJI        FAIR      22  11  62 CALM      30.05S
HALLOCK        CLOUDY    19  18  93 S12       30.08S WCI   7
ROSEAU         CLOUDY    21  14  73 CALM      30.07F
WARROAD        FAIR      16   9  73 NE5       30.08S WCI   9
CROOKSTON      FAIR      19  18  93 S7        30.10F WCI  10
FOSSTON        CLOUDY    19  14  79 SW7       30.07F WCI  10
DETROIT LAKES  CLOUDY    21  18  86 CALM      30.07S
MOORHEAD       CLOUDY    21  16  79 S3        30.10F
PARK RAPIDS    FAIR      24  14  65 CALM      30.04F
MAHNOMEN       CLOUDY    20  15  82 SW7       30.08S WCI  11
$$
MNZ006-009>011-018-025>026-232100-
   North Central Minnesota

CITY           SKY/WX    TMP DP  RH WIND       PRES   REMARKS
BAUDETTE       PTSUNNY   19   3  49 CALM      30.06F
FLAG ISLAND    FAIR      10   3  72 S3        30.08F
INTL FALLS     FAIR      16  -1  47 CALM      30.08F
WASKISH        FAIR      18   7  62 NW5       30.07F WCI  11
BIG FORK       FAIR      21   7  53 CALM      30.05F
LONGVILLE      FAIR      21   7  53 CALM      30.05F
GRAND RAPIDS   FAIR      24  10  55 NW6       30.07F WCI  17
CRANE LAKE     FAIR      12  -4  48 N3        30.10S
ORR            FAIR      16   0  48 W3        30.04S
COOK           FAIR      18   1  49 CALM      30.06S
WALKER         FAIR      22   5  46 CALM      30.06S
$$
MNZ012-019>021-037-232100-
   Northeast Minnesota

CITY           SKY/WX    TMP DP  RH WIND       PRES   REMARKS
DULUTH         FAIR      22   6  50 N8        30.01S WCI  12
HIBBING        FAIR      18   6  59 NW7       30.04S WCI   9
EVELETH        FAIR      18   2  48 NE3       30.04F
DULUTH HARBOR  FAIR      21  10  63 CALM      30.08S
TWO HARBORS    FAIR      34  14  44 CALM      30.01R
SILVER BAY     FAIR      27  10  50 N3        30.00R
GRAND MARAIS     N/A     26  -1  31 MISG      30.03R
G MARAIS ARPRT FAIR      16  -8  35 NW7       29.96R WCI   6
$$
MNZ029>031-032-039>041-046>048-054>057-064-232100-
   West Central Minnesota

CITY           SKY/WX    TMP DP  RH WIND       PRES   REMARKS
FERGUS FALLS   CLOUDY    21  18  86 W7        30.09S WCI  13
WHEATON        CLOUDY    23  18  80 SW6       30.12S WCI  16
MORRIS         CLOUDY    25  18  74 NW6       30.08S WCI  18
ALEXANDRIA     FAIR      26  32 100 MISG      30.06F
ELBOW LAKE     CLOUDY    22  17  83 W6        30.09S WCI  14
WADENA         FAIR      23  16  74 CALM      30.05F
GLENWOOD       FAIR      27  18  69 CALM      30.07S
APPLETON       CLOUDY    25  18  74 NW3       30.10F
BENSON         SUNNY     27  18  69 NW5       30.10F WCI  21
MADISON        CLOUDY    27  21  80 W6        30.11S WCI  20
WILLMAR        FAIR      28  18  64 NW8       30.10F WCI  20
$$
MNZ033>034-036-042>043-049>051-058-059-232100-
   Central Minnesota

CITY           SKY/WX    TMP DP  RH WIND       PRES   REMARKS
ST CLOUD       FAIR      26  12  55 N9        30.07S WCI  17
SAUK CENTRE      N/A     26  14  61 CALM      30.07F
PAYNESVILLE    FAIR      29  16  58 NW7       30.08S WCI  22
AITKIN         FAIR      21   9  58 NW3       30.04F
PINE RIVER     FAIR      21   7  53 CALM      30.08F
BRAINERD       FAIR      25   7  46 N5        30.06S WCI  19
STAPLES        FAIR      25  12  58 W5        30.06S WCI  19
LONG PRAIRIE   FAIR      27  14  59 W3        30.07S
LITTLE FALLS   FAIR      27   3  36 NW3       30.07S
LITCHFIELD     FAIR      30  16  55 NW9       30.07F WCI  22
BUFFALO        FAIR      28  12  52 N8        30.08R WCI  20
MAPLE LAKE     FAIR      30  16  56 MISG      30.07S
HUTCHINSON     FAIR      30  17  59 NW12      30.08S WCI  20
$$
MNZ037-044-045-052-053-232100-
   East Central Minnesota

CITY           SKY/WX    TMP DP  RH WIND       PRES   REMARKS
PRINCETON      FAIR      27  14  59 W6        30.06S WCI  20
MORA           FAIR      23  12  63 NW9       30.08R WCI  13
CAMBRIDGE      FAIR      27  14  59 NW5       30.06F WCI  21
RUSH CITY      FAIR      22  10  60 N3        30.07S
MOOSE LAKE     FAIR      23   5  46 N7        30.04S WCI  15
HINCKLEY       FAIR      23  10  58 N3        30.06S
CLOQUET        FAIR      21   5  49 NW7       30.03S WCI  13
MCGREGOR       FAIR      23  10  58 NW5       30.05F WCI  17
$$
MNZ071>073-080-081-089-090-097-098-232100-
   Southwest Minnesota

CITY           SKY/WX    TMP DP  RH WIND       PRES   REMARKS
MONTEVIDEO     CLOUDY    28  19  69 W7        30.10F WCI  21
GRANITE FALLS  MOSUNNY   28  20  71 W12       30.11F WCI  18
CANBY          CLOUDY    26  21  83 CALM      30.11F
MARSHALL       CLOUDY    25  19  78 W7        30.10F WCI  17
REDWOOD FALLS  SUNNY     29  18  63 NW9       30.09F WCI  20
OLIVIA         SUNNY     30  18  59 W8        30.08S WCI  23
PIPESTONE      CLOUDY    21  19  93 W7        30.08S WCI  13
WINDOM         SUNNY     23   9  54 W13       30.08F WCI  11
WORTHINGTON    CLOUDY    24  20  84 W10       30.09  WCI  14
JACKSON        SUNNY     23  18  80 NW10      30.09S WCI  12
TRACY          CLOUDY    26  21  83 NW6       30.09S WCI  19
SLAYTON        CLOUDY    23  20  87 W7        30.08F WCI  15
$$
MNZ065>067-074>077-082>085-091>093-232100-
   South Central Minnesota

CITY           SKY/WX    TMP DP  RH WIND       PRES   REMARKS
MANKATO        FAIR      25  17  72 NW10      30.08F WCI  15
NEW ULM        SUNNY     25  16  68 NW10      30.08F WCI  15
ST JAMES       SUNNY     25  18  74 NW9       30.10F WCI  15
FAIRMONT       SUNNY     25  20  81 NW14      30.09F WCI  13
FARIBAULT      FAIR      23  16  74 W12       30.06S WCI  12
OWATONNA       FAIR      21  16  79 W12       30.05S WCI   9
WASECA         FAIR      23  18  80 W10       30.08S WCI  12
ALBERT LEA     FAIR      21  14  73 NW8       30.06R WCI  12
$$
MNZ078>079-086>088-094>096-232100-
   Southeast Minnesota

CITY           SKY/WX    TMP DP  RH WIND       PRES   REMARKS
ROCHESTER      CLOUDY    20  17  88 NW15      30.02R WCI   6
RED WING       FAIR      25  12  58 N8        30.05S WCI  16
STANTON        FAIR      24  16  71 W6        30.05S WCI  17
DODGE CENTER   FAIR      19  14  79 NW10      30.03R WCI   8
WINONA         CLOUDY    23  18  80 N12       30.03S WCI  12
PRESTON        CLOUDY    22  18  85 N12       30.01S WCI  10
$$
ABBREVIATIONS USED IN REMARKS
   TC - TEMPERATURES IN CELSIUS
  WCI - WIND CHILL INDEX
   HX - HEAT INDEX
  VSB - VISIBILITY
$$



USA.gov is the U.S. government's official web portal to all federal, state and local government web resources and services.